Charleston, WV

3:59 AM EST on December 12, 2019 (GMT -0500)
Yeager Airport

Weather History for KCRW - June, 2019

Change the Weather History Date:

Sunday, June 9, 2019

  Actual Average Record
Temperature  
Mean Temperature 73 °F 70 °F  
Max Temperature 79 °F 81 °F 97 °F (1933)
Min Temperature 66 °F 60 °F 43 °F (1912)
Degree Days  
Heating Degree Days 0 1  
Month to date heating degree days 2 9  
Since 1 June heating degree days 2 9  
Since 1 July heating degree days 4146 4474  
Cooling Degree Days 8 6  
Month to date cooling degree days 45 47  
Year to date cooling degree days 241 157  
Since 1 June cooling degree days 45 47  
Growing Degree Days 22 (Base 50)    
Moisture  
Dew Point 64 °F    
Average Humidity 76    
Maximum Humidity 84    
Minimum Humidity 67    
Precipitation  
Precipitation 0.01 in 0.14 in 1.56 in (1924)
Month to date precipitation 0.90 1.37  
Year to date precipitation 23.13 19.51  
Sea Level Pressure  
Sea Level Pressure 29.98 in    
Wind  
Wind Speed 6 mph (ENE)    
Max Wind Speed 14 mph    
Max Gust Speed 17 mph    
Visibility 10 miles    
Events Rain    
T = Trace of Precipitation, MM = Missing Value Source: NWS Daily Summary

Daily Weather History Graph

Daily Weather History Graph

Search for Another Location

Airport or City:

Astronomy

Jun. 09, 2019 Rise Set
Actual Time 6:02 AM EDT 8:49 PM EDT
Civil Twilight 5:30 AM EDT 9:20 PM EDT
Nautical Twilight 4:51 AM EDT 10:00 PM EDT
Astronomical Twilight 4:06 AM EDT 10:44 PM EDT
Moon 12:36 PM EDT (6/9) 1:30 AM EDT (6/9)
Length of Visible Light 15h 49m
Length of Day
14h 46m
Waxing Crescent, 43% of the Moon is Illuminated
Jun 9
Waxing Crescent
Jun 10
First Quarter
Jun 17
Full
Jun 25
Last Quarter
Jul 2
New

Hourly Weather History & Observations

Time (EDT) Temp. Dew Point Humidity Pressure Visibility Wind Dir Wind Speed Gust Speed Precip Events Conditions
12:54 AM 66.9 °F 61.0 °F 81% 29.98 in 10.0 mi NE 4.6 mph - N/A   Mostly Cloudy
1:54 AM 66.9 °F 61.0 °F 81% 29.96 in 10.0 mi NE 4.6 mph - N/A   Overcast
2:54 AM 66.9 °F 61.0 °F 81% 29.95 in 10.0 mi NE 5.8 mph - N/A   Scattered Clouds
3:54 AM 70.0 °F 62.1 °F 76% 29.95 in 10.0 mi East 4.6 mph - 0.00 in Rain Light Rain
4:54 AM 68.0 °F 63.0 °F 84% 29.95 in 10.0 mi ENE 4.6 mph - 0.00 in Rain Light Rain
5:54 AM 66.9 °F 63.0 °F 87% 29.96 in 10.0 mi ENE 4.6 mph - 0.00 in   Mostly Cloudy
6:54 AM 68.0 °F 63.0 °F 84% 29.97 in 10.0 mi ENE 5.8 mph - 0.00 in   Mostly Cloudy
7:54 AM 70.0 °F 63.0 °F 78% 29.98 in 10.0 mi ENE 8.1 mph - N/A   Overcast
8:54 AM 69.1 °F 64.0 °F 84% 30.00 in 10.0 mi NE 4.6 mph - 0.00 in Rain Light Rain
9:54 AM 70.0 °F 64.0 °F 81% 30.01 in 10.0 mi East 5.8 mph - 0.01 in   Overcast
10:54 AM 72.0 °F 64.9 °F 78% 30.00 in 10.0 mi East 5.8 mph - 0.00 in   Mostly Cloudy
11:54 AM 73.9 °F 64.9 °F 73% 30.01 in 10.0 mi East 11.5 mph - 0.00 in Rain Light Rain
12:54 PM 75.9 °F 64.9 °F 69% 30.00 in 10.0 mi East 8.1 mph - 0.00 in   Mostly Cloudy
1:54 PM 73.9 °F 66.0 °F 76% 30.01 in 10.0 mi East 10.4 mph - 0.00 in Rain Light Rain
2:54 PM 75.9 °F 66.0 °F 71% 29.99 in 10.0 mi ESE 6.9 mph - 0.00 in   Overcast
3:54 PM 78.1 °F 66.0 °F 66% 29.97 in 10.0 mi ESE 9.2 mph - N/A   Mostly Cloudy
4:54 PM 77.0 °F 66.0 °F 69% 29.97 in 10.0 mi East 8.1 mph - 0.00 in Rain Light Rain
5:54 PM 77.0 °F 66.0 °F 69% 29.96 in 10.0 mi ESE 10.4 mph - 0.00 in   Mostly Cloudy
6:54 PM 75.9 °F 66.0 °F 71% 29.96 in 10.0 mi East 5.8 mph - N/A   Mostly Cloudy
7:54 PM 75.0 °F 66.9 °F 76% 29.96 in 10.0 mi East 4.6 mph - N/A   Mostly Cloudy
8:54 PM 73.9 °F 64.9 °F 73% 29.96 in 10.0 mi East 4.6 mph - N/A   Mostly Cloudy
9:54 PM 73.0 °F 64.9 °F 76% 29.98 in 10.0 mi East 5.8 mph - N/A   Mostly Cloudy
10:54 PM 72.0 °F 66.0 °F 81% 29.98 in 10.0 mi Calm Calm - N/A   Mostly Cloudy
11:54 PM 71.1 °F 66.9 °F 87% 29.96 in 10.0 mi NE 4.6 mph - N/A   Mostly Cloudy